Temperature
18 18 18 18 18 18 18 18 18 18 18 18 18 18 18 18 18 18 18 18 18 18 18 17 17 17 17 17 17 17 17 17 17 17 17 17 17 17 17 17 17 17 17
18 18 18 18 18 18 18 18 18 18 18 18 18 18 18 18 18 18 18 17 18 18 18 17 17 17 17 17 17 17 17 17 17 17 17 17 17 17 17 17 17 17 17
18 18 18 18 18 18 18 18 18 18 18 18 18 18 18 18 18 18 18 17 17 17 17 17 17 17 17 17 17 17 17 17 17 17 17 17 17 17 17 17 17 17 17
18 18 18 18 18 18 18 18 18 18 18 18 18 18 18 18 18 18 18 17 17 17 17 17 17 17 17 17 17 17 17 17 17 17 17 17 17 17 17 17 17 17 16
18 18 18 18 18 18 18 18 18 18 18 18 18 18 18 18 18 18 18 18 17 17 17 17 17 17 17 17 17 17 17 17 17 17 16 16 16 16 16 16 16 16 16
18 18 18 18 18 18 18 18 18 18 18 18 18 18 18 18 18 18 18 18 17 17 17 17 17 17 17 17 17 17 16 16 16 16 16 16 16 16 16 16 16 16 16
18 18 18 18 18 18 18 18 18 18 18 18 18 18 18 18 18 18 17 17 17 17 17 17 17 16 16 17 17 17 16 16 16 16 16 16 16 16 16 16 16 16 16
18 18 18 18 18 18 18 17 17 18 18 18 18 19 19 19 18 18 17 17 17 17 17 17 17 16 16 16 16 16 16 16 16 16 16 16 16 16 16 16 16 16 16
18 18 18 18 18 18 18 17 17 17 18 18 18 18 19 20 19 18 17 17 17 17 17 16 16 16 16 16 16 16 16 16 16 16 16 16 16 16 16 16 16 16 16
18 18 18 18 18 18 18 17 17 17 17 18 18 17 17 18 18 19 18 17 17 16 16 16 16 16 16 16 16 16 16 16 16 16 16 16 16 16 16 16 16 16 16
18 18 18 18 18 18 18 18 17 17 17 17 18 17 17 17 17 18 18 17 17 17 16 16 16 16 16 16 15 16 16 16 16 16 16 16 16 16 16 16 16 15 15
18 18 18 18 18 18 18 17 17 17 17 17 17 17 17 17 18 18 18 17 17 17 16 16 16 16 16 15 15 16 16 16 16 16 16 16 16 16 16 16 15 15 15
18 18 18 18 18 18 18 17 17 17 17 17 17 17 17 17 17 17 17 17 17 17 16 16 16 16 15 15 15 15 16 16 16 16 15 15 15 15 15 15 15 15 15
18 18 18 18 18 18 17 17 17 17 17 17 17 16 16 16 16 17 17 17 17 17 17 16 16 15 15 15 15 15 15 15 15 15 15 15 15 15 15 15 15 15 15
18 18 18 18 18 18 17 17 17 17 17 16 16 16 16 16 16 16 16 16 17 17 17 16 16 15 15 15 15 15 15 15 15 15 15 15 15 15 15 15 15 15 15
18 18 17 18 17 17 17 17 17 16 16 16 16 16 16 16 16 16 16 16 16 16 17 16 16 15 15 15 15 14 14 15 15 15 15 15 15 15 15 15 15 15 15
18 18 17 17 17 17 17 17 16 16 16 16 16 16 15 15 15 16 15 15 15 15 16 16 15 15 15 14 14 14 14 14 14 14 14 14 14 14 14 14 14 14 14
18 17 17 17 16 16 16 16 16 16 16 15 15 15 15 15 15 15 15 15 15 15 15 15 15 15 14 14 14 14 14 14 14 14 14 14 14 14 14 14 14 14 14
17 17 17 17 16 16 16 16 16 16 15 15 15 15 15 14 14 15 15 15 15 15 15 15 15 14 14 14 14 14 14 14 14 14 14 14 14 14 14 14 14 13 13
17 17 17 17 16 16 16 16 15 15 15 15 15 15 14 14 14 14 14 14 14 14 14 14 14 14 14 14 14 14 14 14 14 14 14 14 14 14 14 13 13 13 13
17 16 16 16 16 16 16 15 15 15 15 15 15 14 14 14 14 14 14 14 14 14 14 14 14 14 14 13 14 14 14 14 14 13 13 13 13 13 13 13 13 13 13
16 16 16 16 16 16 16 16 15 15 15 14 14 14 14 14 14 14 14 14 14 14 14 14 14 14 13 13 13 13 13 13 14 13 13 13 13 13 13 13 13 13 13
16 16 16 16 16 16 16 16 15 15 14 14 14 14 14 14 14 14 14 14 14 14 13 13 13 13 13 13 13 13 13 13 13 13 13 13 13 13 13 13 13 13 13
16 16 16 16 15 15 15 15 15 15 14 14 14 14 14 14 14 14 13 13 13 13 13 13 13 12 12 12 12 12 12 12 13 13 12 13 13 13 13 13 12 12 12
16 15 15 15 15 15 15 15 15 14 14 14 14 13 13 13 13 13 13 13 13 13 13 13 13 13 13 12 12 12 12 12 13 13 12 12 13 13 13 12 12 12 12
15 15 15 15 15 15 15 15 14 14 14 13 13 13 13 13 13 13 13 13 12 12 12 13 12 12 12 12 12 12 12 12 12 13 12 12 12 12 12 12 12 12 12
Wind_Speed
1 2 1 1 1 2 3 3 3 3 3 4 4 4 3 3 3 4 4 7 7 7 6 6 6 5 5 6 6 6 6 6 7 7 7 6 6 5 5 6 7 9 10
1 1 2 1 1 1 1 2 2 3 3 3 3 3 3 3 3 4 3 6 7 7 6 6 6 6 6 5 6 7 7 7 8 7 7 6 6 5 5 5 6 8 9
1 1 1 1 1 2 3 2 2 2 3 3 2 2 2 3 2 3 3 4 6 8 7 7 6 6 6 5 5 6 7 8 8 8 8 7 7 6 6 6 6 6 7
0 1 1 1 1 2 2 2 2 1 1 1 1 1 1 2 3 3 3 4 4 5 7 8 6 6 6 5 5 5 6 7 8 8 8 8 8 7 7 6 6 6 7
1 1 0 0 1 1 1 1 1 0 1 0 1 2 1 1 2 2 2 3 3 3 4 8 8 6 5 5 5 5 5 6 8 8 8 7 6 6 7 7 7 7 7
1 1 1 1 1 1 1 0 1 0 1 1 2 0 1 1 1 1 2 3 3 4 4 4 6 6 6 5 4 4 5 5 6 7 8 8 7 7 7 7 7 8 8
1 1 1 1 1 1 1 1 1 2 1 1 2 1 2 2 2 1 1 1 3 3 3 4 3 3 5 8 6 5 5 5 5 6 7 8 8 7 7 7 7 7 8
2 2 2 2 1 0 1 1 1 1 1 1 2 2 2 3 2 2 2 2 2 2 2 3 3 3 4 4 5 7 6 6 6 6 5 6 8 8 8 7 7 7 6
2 2 1 2 1 2 1 1 2 2 1 1 1 2 2 0 1 2 1 1 1 1 2 2 3 3 4 3 3 5 6 6 6 6 6 7 7 8 8 8 8 7 6
3 3 2 2 2 1 1 2 1 2 3 2 1 1 2 2 2 1 2 2 1 2 1 2 2 3 3 3 2 3 5 5 6 6 6 6 7 7 9 9 9 8 7
3 3 3 2 2 2 1 1 1 3 2 3 2 1 2 2 3 3 2 2 2 2 1 2 2 2 3 3 4 3 5 5 5 5 6 6 6 7 8 9 9 9 8
3 3 3 2 3 2 2 2 2 3 2 2 3 2 2 2 3 3 3 3 2 1 2 1 2 2 2 3 3 4 4 4 4 5 5 6 6 6 7 8 9 8 8
3 3 3 3 2 2 3 3 3 3 3 3 3 3 3 3 3 4 4 4 3 2 1 2 2 1 2 2 3 5 5 5 5 5 5 6 6 6 6 7 8 8 7
2 2 4 4 4 4 4 3 3 3 3 3 3 3 3 3 4 4 4 4 4 3 2 2 1 2 1 2 1 4 3 6 6 6 6 6 5 6 6 7 7 7 6
3 3 4 4 4 4 3 3 2 2 2 2 2 2 3 3 3 4 4 4 5 5 3 2 2 1 1 1 1 3 3 4 6 6 6 6 5 5 5 6 6 6 6
3 3 4 3 3 3 3 3 2 1 2 2 2 2 3 3 3 3 4 4 5 5 5 2 2 1 1 1 2 3 3 4 6 7 7 7 6 6 5 5 5 5 5
4 4 4 4 3 3 3 3 3 3 3 3 3 2 2 4 4 3 3 4 4 5 5 4 2 1 1 3 2 4 4 5 4 8 7 7 6 6 6 5 5 5 5
5 5 5 5 4 4 4 4 4 4 4 3 3 2 3 2 3 3 3 4 3 4 4 4 3 3 3 3 3 4 4 4 4 7 8 8 7 7 7 6 6 6 5
5 5 5 5 4 4 5 4 4 4 4 4 3 3 3 3 3 2 3 3 3 3 3 4 4 3 3 3 3 4 4 4 5 5 9 10 9 9 8 9 8 7 6
5 5 4 4 5 5 5 5 4 4 4 4 3 3 3 3 3 3 3 3 3 3 4 4 4 4 3 3 3 4 4 3 4 4 3 4 8 10 10 10 9 8 7
5 5 4 5 5 5 5 4 5 5 4 4 4 4 4 2 2 3 3 3 3 4 4 4 4 4 3 3 4 4 4 4 4 4 4 4 4 5 7 10 10 9 8
4 4 5 5 5 4 4 3 4 4 4 5 4 4 4 3 3 3 2 3 4 5 5 5 4 4 4 4 4 5 5 5 5 2 4 5 4 4 4 4 6 9 9
4 4 5 5 5 4 4 5 5 5 5 4 4 4 4 2 3 3 4 6 5 5 5 6 5 5 4 4 4 5 5 6 6 4 4 6 4 5 5 3 8 9 9
4 5 5 5 5 4 5 6 6 7 6 5 5 5 5 4 3 3 4 4 5 4 5 5 4 5 4 3 4 5 5 6 6 5 4 6 5 5 4 4 8 10 9
4 5 5 5 5 4 5 6 6 6 5 6 6 5 5 5 2 3 5 5 4 4 4 3 3 3 3 4 5 5 5 6 5 4 4 5 5 5 5 5 5 11 11
5 5 4 4 4 4 5 6 7 6 5 5 5 6 4 4 3 4 6 6 6 5 4 4 5 6 6 6 7 6 6 6 5 5 3 4 5 5 5 4 4 5 7
Wind_Direction
135 138 134 153 181 148 164 169 169 172 195 201 204 195 202 208 218 214 163 163 185 195 200 198 197 201 206 199 198 204 209 209 208 211 212 212 215 214 220 224 218 212 213
123 141 156 169 185 174 150 167 164 174 189 184 193 186 205 202 211 227 200 172 181 188 194 198 197 199 204 215 216 212 211 216 213 210 209 209 214 216 216 213 213 214 215
139 186 182 186 173 163 164 175 166 181 181 177 176 186 201 208 208 220 227 210 184 181 188 192 190 195 199 210 221 220 221 220 217 215 215 213 215 216 216 217 216 217 217
185 221 222 189 173 191 172 160 196 179 140 195 161 226 208 185 202 218 221 211 199 182 175 183 191 197 200 205 219 225 228 223 219 215 214 215 215 214 214 216 217 222 222
201 221 171 82 218 203 200 214 133 171 176 250 216 199 233 227 201 221 220 212 187 179 167 165 177 183 188 193 209 221 226 226 221 214 211 213 214 215 218 221 223 226 227
215 244 186 182 245 207 202 125 123 168 244 242 278 214 223 206 208 196 212 186 166 177 171 163 172 175 181 190 201 219 227 229 228 221 215 213 218 222 226 226 229 230 230
207 237 263 176 264 258 266 224 211 178 205 239 257 235 186 176 156 163 194 181 169 178 173 172 185 193 188 193 204 218 226 229 228 230 226 218 217 223 228 230 233 236 235
228 209 242 244 236 263 218 233 233 262 222 207 261 270 225 167 164 142 160 177 180 183 187 185 190 212 242 211 185 206 218 228 233 229 227 224 220 220 225 229 230 231 238
213 244 236 265 248 244 201 234 228 235 242 218 258 284 287 335 136 158 155 154 177 197 203 190 201 214 238 238 201 178 200 217 223 225 226 225 223 220 223 228 231 232 239
207 209 215 225 248 262 211 240 193 232 242 248 206 250 288 323 282 207 194 170 193 222 227 233 205 197 219 231 213 178 192 211 214 221 223 222 226 227 227 229 231 232 236
201 211 206 206 219 242 251 277 245 251 246 261 264 238 237 229 249 269 265 245 224 216 194 220 223 206 198 212 219 179 178 198 210 225 228 226 229 231 233 231 232 233 234
199 195 200 206 219 237 231 237 236 228 257 277 282 277 266 265 260 262 267 261 261 247 220 235 240 221 207 208 192 145 171 193 206 222 231 233 234 236 239 235 232 234 235
205 193 203 203 216 218 226 232 227 246 239 243 253 265 271 274 279 278 279 275 274 261 234 232 217 215 219 207 176 163 186 197 208 221 231 237 236 231 236 241 232 232 235
232 198 203 206 212 219 226 225 237 233 232 237 248 265 272 270 271 270 270 275 272 262 229 237 218 210 221 219 164 203 203 195 209 218 224 231 233 230 234 232 232 233 232
219 203 207 207 209 212 223 229 239 260 249 248 250 249 267 274 264 270 267 265 271 276 268 211 233 197 199 223 171 245 243 188 204 214 218 219 219 223 228 229 230 232 229
230 214 205 203 204 203 194 203 206 208 224 243 266 298 290 286 283 265 260 261 265 270 281 269 234 239 271 245 202 247 248 179 202 211 211 211 212 216 220 227 230 230 230
221 220 218 215 202 198 196 197 213 212 217 225 242 241 262 291 284 276 267 262 259 259 260 265 242 206 248 277 262 256 249 241 210 191 202 206 208 212 218 220 223 230 232
214 216 216 213 210 205 208 208 218 223 224 227 237 244 255 264 270 279 282 275 271 265 253 256 252 231 230 248 259 263 259 251 256 178 192 204 208 214 220 221 223 230 234
204 209 210 212 212 213 215 218 220 229 228 230 233 239 251 263 270 275 273 274 270 261 250 248 248 251 248 250 254 257 265 273 266 203 196 203 208 215 218 215 217 221 226
202 210 213 213 212 216 218 223 223 226 228 231 237 244 252 261 265 264 254 259 267 270 254 250 249 243 242 244 255 260 259 254 267 268 241 222 206 206 210 211 214 215 218
212 207 209 209 211 215 215 217 226 224 223 231 238 243 246 253 300 292 288 281 268 264 262 257 254 254 252 254 260 270 272 275 262 270 265 253 226 225 211 210 211 212 215
214 215 214 213 216 217 158 191 235 232 226 230 239 244 240 220 209 213 265 296 294 269 271 269 262 263 267 265 272 273 275 276 273 266 279 276 270 263 246 230 186 194 209
209 213 220 221 224 211 172 186 219 236 235 236 238 244 250 229 205 227 216 220 241 255 268 275 276 275 269 272 275 270 277 282 285 288 276 272 265 261 257 224 169 187 204
211 215 219 223 227 213 179 192 210 225 239 239 238 237 242 246 237 244 247 240 241 239 244 252 270 277 277 272 260 266 273 267 266 262 259 266 264 261 263 242 183 190 202
211 219 220 223 226 216 183 193 212 227 231 240 241 238 239 235 220 246 245 245 247 243 221 221 257 272 288 269 267 263 260 262 268 262 245 265 274 267 259 246 208 194 202
212 218 213 220 228 230 192 194 212 232 233 237 234 234 220 231 210 228 241 249 251 254 258 238 229 230 234 228 231 251 259 261 269 267 239 256 269 270 265 251 240 220 212
Height
1545 1545 1545 1545 1547 1547 1547 1547 1548 1548 1549 1550 1551 1552 1552 1553 1554 1555 1554 1554 1554 1554 1555 1556 1557 1557 1558 1559 1560 1560 1561 1561 1562 1562 1563 1563 1564 1564 1565 1565 1565 1566 1567
1545 1545 1545 1546 1546 1547 1547 1547 1548 1548 1549 1550 1551 1551 1552 1552 1552 1553 1554 1553 1553 1553 1553 1554 1555 1556 1557 1558 1558 1559 1559 1560 1561 1561 1562 1562 1562 1563 1563 1564 1564 1565 1566
1545 1546 1546 1546 1547 1547 1546 1547 1548 1548 1549 1550 1550 1551 1551 1551 1551 1551 1552 1552 1551 1551 1552 1552 1553 1554 1555 1555 1556 1557 1558 1559 1559 1559 1560 1561 1561 1561 1562 1562 1563 1563 1564
1545 1545 1546 1547 1547 1547 1547 1547 1548 1549 1549 1549 1550 1550 1550 1550 1550 1550 1550 1550 1551 1551 1551 1551 1552 1552 1553 1553 1554 1555 1556 1556 1557 1558 1558 1559 1560 1560 1560 1561 1561 1562 1562
1546 1546 1546 1546 1547 1547 1547 1548 1548 1548 1548 1549 1549 1549 1549 1549 1549 1549 1548 1548 1549 1549 1550 1550 1550 1551 1551 1552 1552 1553 1554 1554 1555 1556 1556 1557 1558 1558 1559 1559 1560 1560 1561
1546 1546 1547 1546 1547 1547 1547 1547 1546 1546 1547 1548 1549 1548 1548 1548 1548 1547 1547 1547 1547 1548 1549 1549 1549 1550 1550 1550 1550 1551 1552 1552 1553 1554 1554 1555 1556 1556 1557 1557 1558 1558 1559
1546 1545 1546 1546 1546 1546 1546 1546 1546 1546 1547 1547 1548 1548 1547 1547 1547 1546 1547 1547 1547 1547 1547 1547 1548 1548 1549 1548 1548 1549 1549 1550 1551 1552 1552 1553 1553 1554 1555 1555 1555 1556 1556
1545 1546 1545 1546 1545 1545 1545 1545 1544 1546 1547 1547 1547 1547 1547 1548 1546 1547 1546 1546 1546 1546 1546 1546 1546 1546 1547 1547 1546 1547 1547 1548 1548 1549 1549 1550 1550 1551 1552 1552 1553 1553 1553
1544 1544 1545 1545 1544 1545 1545 1544 1544 1544 1546 1546 1546 1547 1546 1545 1546 1546 1546 1545 1545 1545 1545 1545 1545 1544 1545 1545 1545 1544 1544 1545 1546 1546 1547 1547 1547 1548 1549 1549 1550 1550 1551
1543 1543 1543 1543 1543 1544 1543 1543 1543 1543 1544 1545 1545 1544 1545 1545 1545 1545 1546 1545 1544 1543 1543 1543 1543 1543 1543 1543 1542 1542 1542 1542 1543 1543 1544 1544 1544 1545 1546 1546 1547 1547 1547
1542 1542 1542 1542 1542 1542 1542 1542 1542 1542 1543 1543 1544 1544 1544 1544 1544 1544 1544 1544 1543 1543 1542 1541 1541 1541 1541 1541 1540 1540 1540 1540 1540 1541 1541 1541 1541 1542 1542 1543 1544 1544 1544
1541 1541 1541 1540 1541 1541 1541 1541 1540 1540 1541 1541 1541 1542 1542 1542 1542 1542 1542 1542 1541 1541 1540 1540 1539 1539 1539 1539 1538 1538 1538 1537 1538 1538 1538 1538 1539 1539 1539 1540 1540 1541 1541
1540 1539 1540 1539 1540 1539 1539 1539 1539 1539 1539 1539 1539 1539 1540 1540 1541 1541 1541 1540 1540 1539 1538 1538 1537 1537 1537 1537 1536 1535 1535 1535 1535 1535 1535 1535 1536 1536 1536 1537 1537 1538 1538
1538 1538 1538 1537 1537 1537 1538 1537 1538 1538 1537 1537 1537 1537 1538 1538 1538 1539 1539 1539 1538 1537 1537 1537 1536 1535 1535 1535 1534 1533 1533 1533 1532 1532 1532 1533 1533 1533 1534 1534 1534 1535 1535
1536 1535 1535 1535 1535 1535 1535 1535 1536 1535 1535 1536 1536 1536 1536 1536 1536 1536 1536 1536 1537 1535 1535 1534 1534 1534 1533 1533 1532 1532 1532 1530 1530 1530 1530 1530 1530 1530 1530 1531 1531 1532 1532
1534 1534 1533 1533 1533 1533 1533 1533 1534 1534 1533 1533 1533 1533 1533 1534 1534 1533 1533 1533 1534 1534 1533 1533 1532 1532 1531 1532 1530 1530 1529 1528 1527 1527 1527 1527 1527 1527 1528 1528 1528 1529 1529
1530 1530 1531 1531 1531 1531 1531 1531 1532 1531 1531 1531 1531 1531 1530 1530 1531 1531 1531 1531 1531 1531 1531 1531 1530 1529 1529 1529 1528 1528 1527 1526 1526 1525 1525 1524 1524 1524 1525 1525 1525 1526 1526
1527 1527 1528 1528 1528 1529 1529 1529 1529 1529 1529 1528 1528 1528 1528 1528 1527 1528 1528 1528 1528 1528 1528 1528 1528 1528 1527 1526 1526 1525 1526 1526 1525 1523 1522 1521 1521 1521 1521 1521 1522 1522 1522
1524 1524 1525 1525 1526 1526 1526 1526 1526 1526 1526 1526 1526 1526 1526 1526 1525 1525 1525 1526 1526 1526 1526 1525 1525 1525 1525 1525 1524 1523 1523 1522 1523 1521 1520 1519 1519 1518 1518 1518 1518 1518 1519
1521 1522 1522 1523 1523 1523 1523 1523 1523 1523 1523 1523 1523 1523 1523 1523 1523 1523 1523 1523 1523 1524 1523 1523 1523 1523 1523 1522 1522 1521 1521 1520 1520 1520 1518 1517 1516 1515 1515 1515 1515 1515 1515
1518 1519 1519 1520 1520 1520 1520 1520 1520 1521 1520 1521 1521 1521 1520 1520 1520 1520 1521 1521 1521 1521 1521 1521 1521 1521 1520 1520 1520 1519 1519 1518 1517 1517 1516 1516 1515 1514 1513 1512 1511 1511 1511
1515 1516 1516 1516 1516 1517 1516 1517 1517 1518 1518 1518 1518 1518 1518 1518 1517 1517 1518 1518 1518 1519 1519 1519 1518 1518 1517 1517 1516 1516 1516 1515 1515 1514 1513 1513 1512 1511 1510 1510 1509 1508 1508
1511 1512 1513 1513 1513 1513 1513 1514 1514 1515 1515 1515 1515 1515 1516 1516 1515 1515 1515 1515 1515 1515 1516 1516 1516 1515 1515 1514 1513 1513 1513 1512 1511 1511 1510 1509 1509 1508 1507 1506 1505 1505 1505
1508 1508 1509 1509 1510 1510 1510 1510 1511 1511 1512 1512 1512 1512 1512 1512 1512 1513 1513 1513 1513 1513 1512 1513 1513 1513 1512 1511 1511 1511 1510 1509 1508 1507 1507 1506 1506 1505 1504 1503 1502 1501 1501
1505 1505 1506 1506 1506 1507 1507 1507 1508 1508 1508 1508 1509 1509 1508 1508 1509 1509 1510 1510 1510 1510 1510 1509 1509 1509 1508 1508 1508 1508 1507 1507 1506 1505 1504 1504 1503 1502 1501 1501 1499 1498 1497
1502 1502 1502 1503 1503 1503 1503 1504 1504 1505 1505 1505 1505 1505 1505 1505 1506 1506 1507 1507 1507 1507 1507 1507 1506 1506 1505 1505 1504 1504 1504 1504 1503 1503 1501 1501 1500 1500 1499 1498 1497 1496 1495